SCP
0 0 0 0 0 0 0 1 2 2 2 2 2 2 2 1 1 1 1 1 2 2 2 1 0 0 0 0 1 0 0 0 0 0 0 0 0 0 0 0 0 -0 -0
0 0 0 0 0 0 0 1 2 3 3 3 3 3 3 2 2 2 1 1 1 1 2 1 1 1 0 0 1 1 1 0 0 0 0 0 0 0 0 0 0 0 -0
0 0 0 0 0 0 0 1 4 4 3 4 4 3 3 2 2 1 1 1 1 2 1 1 2 2 2 2 1 1 1 1 0 0 0 0 0 0 0 0 0 0 0
0 0 0 0 0 0 0 1 4 6 6 5 5 4 5 5 3 3 2 1 1 2 2 1 3 3 2 2 2 2 1 1 0 0 0 0 0 0 0 0 0 0 0
0 0 0 0 0 0 0 0 1 3 4 4 4 4 3 2 1 2 2 2 2 1 1 2 2 2 2 3 1 1 1 1 1 1 1 1 1 1 1 1 0 0 0
0 0 0 0 0 0 0 0 0 1 1 3 3 3 3 2 2 1 2 2 1 1 1 1 1 2 2 1 1 1 0 0 1 2 2 3 3 1 0 0 0 0 0
0 0 0 0 0 0 0 0 0 0 0 0 0 0 1 1 1 1 1 1 1 1 1 1 1 1 1 2 0 1 1 1 1 1 1 1 1 1 0 0 0 0 0
0 0 0 0 0 0 0 0 0 0 0 0 0 0 0 0 0 0 0 1 1 1 1 1 1 1 1 1 1 1 1 1 1 1 1 2 2 1 0 0 0 0 0
0 0 0 0 0 0 0 0 0 0 0 0 0 0 0 0 0 0 0 0 0 0 0 0 0 0 0 1 1 1 1 1 1 1 0 0 1 0 0 0 0 0 0
-0 -0 0 0 0 0 0 0 0 0 0 0 0 0 0 0 0 0 0 0 0 0 0 0 0 0 0 0 1 1 1 1 1 1 0 0 0 0 0 0 0 0 0
0 -0 0 0 0 0 0 0 0 0 0 0 0 0 0 0 0 0 0 0 0 0 0 0 0 0 0 0 0 0 0 0 0 0 0 0 0 0 0 0 0 0 0
0 0 0 0 0 0 0 0 0 0 0 0 0 0 0 0 0 0 0 0 0 0 0 0 0 0 0 0 0 0 0 0 0 0 0 0 0 0 0 0 0 0 0
0 0 0 0 0 0 0 0 0 0 0 0 0 0 0 0 0 0 0 0 0 0 0 0 0 0 0 0 0 0 1 1 1 1 1 0 0 0 0 0 0 0 0
0 0 0 0 -0 0 0 0 0 0 0 0 0 0 0 0 0 0 0 0 0 0 0 0 0 0 0 0 0 0 0 0 0 0 0 0 -0 0 0 0 0 0 0
0 0 0 0 0 -0 -0 0 0 0 0 0 0 0 0 0 0 0 0 0 0 0 0 0 0 0 0 0 0 0 0 0 0 0 0 0 0 0 0 0 1 1 1
0 0 0 0 0 -0 0 0 0 0 0 0 0 0 0 0 0 0 0 0 0 0 0 0 0 0 0 0 0 0 0 0 0 0 0 0 0 0 0 0 0 1 0
0 0 -0 -0 0 0 0 0 0 0 0 0 0 0 0 0 0 0 0 0 0 0 0 0 0 0 0 0 0 0 0 0 0 0 0 0 0 0 1 1 0 0 0
-0 -0 0 0 -0 -0 -0 -0 0 0 0 0 0 0 0 0 0 0 0 0 0 0 0 0 0 0 0 0 0 0 0 0 0 0 0 0 0 0 0 1 0 0 0
0 0 0 0 0 0 -0 -0 -0 0 0 0 0 0 0 0 0 0 0 0 0 0 0 0 0 0 0 0 0 0 0 0 0 0 0 0 0 0 0 0 0 0 0
0 0 0 0 0 0 0 0 0 0 0 0 0 0 0 0 0 0 0 0 0 0 0 0 0 0 0 -0 -0 -0 0 0 0 0 0 0 0 0 0 0 0 0 0
-0 0 0 0 0 0 0 0 0 0 0 0 0 0 0 0 0 0 0 0 0 0 0 0 0 0 0 0 -0 -0 0 0 0 0 0 0 0 0 0 0 0 0 0
0 0 0 0 0 0 0 0 0 0 0 0 0 0 0 0 0 0 0 0 0 0 0 0 0 0 0 0 0 0 0 0 0 0 0 0 0 0 0 0 0 0 0
0 0 0 0 0 0 0 0 0 0 0 0 0 0 0 0 0 0 0 0 0 0 0 0 0 0 0 0 0 0 0 0 0 0 0 0 0 0 0 0 0 0 0
0 0 0 0 0 0 0 0 0 0 0 0 0 0 0 0 0 0 0 0 0 0 0 0 0 0 0 0 0 0 0 0 0 0 0 0 0 0 0 0 0 0 0
0 0 0 0 -0 -0 0 0 0 0 -0 0 0 0 0 0 0 0 0 0 0 0 0 0 0 0 0 0 0 0 0 0 0 0 0 0 0 0 0 0 0 0 0
0 0 0 0 0 0 -0 -0 0 0 -0 0 0 0 0 0 0 0 0 0 0 0 0 0 0 0 0 0 0 0 0 0 0 0 0 0 0 0 0 0 0 0 0
Wind_Speed_500mb
67 72 70 64 66 65 72 69 65 67 69 68 70 74 81 76 69 68 68 65 62 67 68 68 68 58 55 61 43 36 32 35 24 35 37 40 36 26 16 22 20 32 47
52 64 71 69 64 64 69 74 71 78 73 71 64 68 71 69 63 63 64 65 58 54 49 64 69 69 61 61 50 45 32 37 29 32 36 36 47 16 13 35 30 26 40
38 50 56 69 74 73 72 79 78 78 74 66 64 65 64 59 58 57 66 60 56 72 70 56 57 57 65 70 59 41 25 28 28 35 27 21 15 44 40 41 40 39 48
40 38 35 41 53 64 66 74 84 83 78 73 68 70 71 68 57 56 59 64 59 51 53 68 65 66 68 68 63 41 45 47 32 32 36 42 43 51 45 49 57 60 52
40 46 43 43 47 53 48 58 69 71 70 72 69 67 63 59 61 59 54 54 62 62 55 65 77 70 69 59 70 52 57 71 82 112 93 59 47 64 55 65 71 60 71
47 55 60 52 47 55 66 68 73 74 70 65 58 55 57 60 62 62 63 62 61 59 58 67 69 67 65 92 59 70 75 83 91 87 85 86 67 62 62 62 60 67 73
41 57 63 71 63 65 71 78 80 81 74 67 63 58 50 48 50 50 52 59 63 69 67 63 66 64 78 67 58 57 59 51 52 64 81 97 96 76 71 67 71 74 90
22 39 56 65 70 64 76 87 88 83 78 71 60 51 41 34 34 37 40 38 44 52 59 65 62 54 50 51 53 49 49 47 48 53 56 56 62 67 79 76 82 74 73
33 40 38 36 51 51 74 94 96 84 71 58 46 35 32 31 30 30 31 28 29 33 39 43 48 58 63 62 66 62 61 55 48 51 58 69 72 73 74 77 70 62 57
35 42 47 20 15 38 60 90 81 70 59 47 37 30 27 24 23 25 28 28 27 28 28 26 23 24 29 32 37 38 39 41 42 44 48 56 64 71 70 60 56 49 54
26 17 28 37 32 2 38 64 64 59 48 36 31 33 29 23 21 20 21 22 22 20 23 23 23 22 23 24 27 29 32 36 38 41 49 52 50 49 51 48 39 48 43
36 44 40 22 28 28 12 31 52 55 49 45 46 31 32 29 29 27 27 26 23 21 16 15 15 12 13 16 19 21 25 31 38 44 48 54 56 46 43 42 45 40 33
64 44 37 34 34 31 21 17 14 50 56 60 61 54 46 47 45 40 36 31 26 27 27 22 18 14 11 12 13 17 23 30 36 42 48 52 51 46 47 49 42 39 39
68 65 54 46 38 32 39 38 30 21 36 62 65 60 56 54 53 49 44 39 26 23 26 29 26 23 23 25 25 27 30 35 41 43 45 50 47 44 42 57 53 49 38
76 77 74 66 50 42 28 32 41 44 45 36 59 70 63 62 57 58 53 48 39 33 30 30 26 24 25 30 32 32 37 40 45 46 47 50 49 45 43 43 52 50 51
77 78 73 61 52 40 24 17 18 29 26 40 42 46 66 72 70 69 63 57 48 43 40 39 36 34 30 27 32 40 46 48 48 54 53 50 50 51 46 44 40 46 53
63 68 70 63 56 52 47 49 41 29 31 33 42 38 49 55 58 62 64 62 59 55 50 47 44 47 47 45 47 46 52 56 57 59 58 56 53 54 51 43 40 43 47
67 71 66 67 73 75 78 76 69 65 59 59 52 57 46 44 47 54 60 57 54 54 53 55 55 57 61 64 64 66 66 63 63 57 57 57 60 58 52 44 43 42 38
76 82 87 96 107 107 105 86 88 87 88 88 83 70 65 65 62 63 63 62 60 59 60 63 68 74 76 73 72 69 64 63 60 55 56 56 61 61 50 48 48 40 38
91 98 98 101 99 105 101 104 110 87 92 106 104 94 88 88 85 82 82 80 78 76 77 81 81 78 83 80 79 70 56 59 55 54 57 57 58 56 43 50 41 30 31
98 101 100 102 106 96 93 104 113 117 117 94 90 95 93 98 104 100 96 93 89 85 86 87 88 88 82 79 78 69 57 53 53 51 58 61 55 46 44 40 29 24 28
102 100 100 107 107 104 101 110 111 108 102 98 99 100 100 91 86 88 97 89 82 80 81 78 79 80 79 76 70 61 58 45 51 49 58 60 48 45 34 34 33 30 30
100 96 89 97 100 98 100 108 109 93 93 92 90 84 81 79 82 82 83 80 77 76 73 70 70 74 75 74 64 52 55 42 50 47 61 58 45 44 36 33 29 29 27
99 93 86 87 93 89 94 102 101 97 92 95 89 79 78 77 65 73 77 75 77 75 73 70 71 75 74 68 59 54 49 47 50 53 64 52 48 40 36 35 33 30 35
94 86 87 85 90 86 86 85 78 88 90 87 84 83 78 80 88 86 77 79 86 81 75 75 77 71 62 59 51 50 47 54 44 56 56 54 52 50 53 44 38 36 46
79 79 81 80 62 61 66 75 66 64 76 74 76 74 70 53 62 67 72 71 72 72 74 70 65 60 52 42 44 47 46 47 45 47 51 56 47 59 53 46 44 53 49
Wind_Direction_500mb
272 258 251 244 232 224 220 221 227 229 226 233 231 233 232 234 234 232 229 230 233 238 239 242 244 240 247 247 246 252 265 274 293 307 306 305 308 293 289 316 326 4 9
273 252 247 246 242 237 229 221 227 227 228 231 234 234 232 231 231 230 230 233 235 239 237 245 238 238 232 242 234 245 251 269 297 307 310 312 314 317 232 314 310 316 348
296 263 253 249 242 236 235 230 227 226 226 228 226 227 229 232 222 222 227 235 241 242 245 245 237 242 238 224 228 216 229 264 304 300 314 305 307 300 300 306 319 317 329
291 281 275 260 246 239 238 235 225 221 220 223 224 224 226 229 228 224 220 229 236 243 251 249 243 235 236 235 233 226 246 266 274 294 320 307 298 288 295 292 308 306 302
295 290 284 272 266 249 240 228 223 224 223 224 227 229 233 237 239 240 232 231 234 245 251 248 250 244 238 243 254 250 249 262 261 275 267 278 295 278 272 281 295 303 317
292 289 283 271 256 246 233 222 219 219 218 220 221 224 227 233 238 242 240 234 234 239 247 248 248 241 246 232 228 238 250 248 257 250 257 261 255 267 278 278 291 305 316
293 285 279 267 254 234 232 221 213 213 211 210 214 214 214 217 226 232 238 235 231 237 239 239 242 253 245 247 242 238 242 257 264 260 263 265 266 259 272 278 289 302 305
336 308 288 263 258 244 229 223 210 206 205 204 202 205 211 223 231 234 237 235 232 232 235 239 243 245 241 247 256 254 255 264 268 268 272 269 269 273 277 281 288 291 293
39 19 340 275 249 244 231 222 209 205 202 199 197 206 224 234 244 238 228 219 212 212 216 226 235 242 246 248 252 257 261 266 274 271 268 270 276 275 273 280 284 281 287
57 40 30 10 279 233 229 212 200 196 193 196 207 221 222 212 209 213 218 218 217 215 213 215 218 223 231 236 244 252 258 263 264 268 272 277 273 278 274 285 283 281 274
333 11 11 19 49 52 218 193 190 192 198 204 210 199 196 198 201 213 213 205 201 205 211 215 219 227 236 244 251 257 262 267 268 272 277 285 292 291 292 299 279 277 278
349 328 327 333 358 33 91 212 202 197 199 202 201 201 203 210 217 221 216 217 219 213 195 189 190 206 233 250 265 275 281 285 282 280 284 287 292 296 284 310 299 291 290
347 348 351 338 301 307 337 25 232 228 217 211 208 207 210 214 220 226 227 229 237 227 225 222 220 222 235 259 273 299 312 318 310 298 297 296 298 295 292 288 301 296 288
333 335 339 343 347 330 305 285 298 290 250 243 237 224 220 226 231 233 235 235 232 229 233 236 242 250 254 256 265 282 295 307 312 308 303 300 294 289 290 282 281 274 283
325 323 326 326 328 332 313 285 274 279 275 267 244 243 230 233 234 237 239 237 237 239 237 239 241 253 273 272 273 276 284 292 298 303 294 305 291 282 267 265 269 268 269
315 315 312 308 305 301 300 291 264 252 254 261 253 243 242 241 239 236 231 230 232 234 235 240 240 252 272 268 272 276 278 284 288 295 294 290 294 282 277 270 270 265 260
304 303 300 296 290 283 278 279 282 248 237 236 235 236 238 233 226 226 230 231 232 236 238 241 249 258 266 270 278 281 283 279 280 288 293 286 290 286 283 281 273 261 256
297 298 289 289 287 290 289 284 277 274 265 259 249 228 228 238 235 230 232 232 233 236 241 247 256 264 268 273 279 284 284 280 274 280 287 291 284 288 286 288 280 268 256
290 286 281 280 282 282 280 278 276 275 273 268 263 248 239 245 242 238 240 245 246 250 254 258 262 266 272 278 283 287 282 270 266 271 280 287 281 287 285 283 282 266 246
285 281 274 278 275 275 276 271 271 269 267 263 262 264 257 253 249 246 246 249 250 254 257 260 267 274 278 282 285 288 268 260 260 264 273 282 281 287 282 277 264 253 221
288 279 278 270 269 267 261 258 260 264 266 261 257 256 255 254 255 254 253 251 255 257 260 263 267 271 272 276 280 280 250 254 260 259 272 282 283 281 271 253 231 213 207
291 284 273 271 270 265 258 257 254 255 254 255 255 254 253 249 245 247 253 254 250 251 256 261 264 261 264 267 269 267 239 253 255 257 272 280 284 275 258 239 221 207 209
292 289 281 275 271 263 257 254 252 247 245 245 247 246 251 251 245 241 244 240 237 233 243 252 254 255 259 261 258 251 234 247 253 259 270 277 272 270 240 213 213 220 228
300 299 292 284 280 274 260 253 250 246 242 238 236 236 236 230 229 230 230 229 231 237 244 251 251 256 260 260 247 240 225 245 252 259 266 268 261 263 217 212 218 226 228
311 314 305 295 290 293 278 265 252 238 232 231 234 236 231 237 237 231 232 235 239 246 244 247 254 254 251 251 236 228 220 246 257 259 262 259 248 219 211 216 219 235 235
322 320 319 314 311 302 277 259 251 233 226 221 219 216 216 210 214 216 221 228 239 238 248 252 251 246 241 242 225 227 238 246 258 265 257 251 223 204 205 210 225 231 208
Wind_Speed_850mb
67 72 70 64 66 65 72 69 65 67 69 68 70 74 81 76 69 68 68 65 62 67 68 68 68 58 55 61 43 36 32 35 24 35 37 40 36 26 16 22 20 32 47
52 64 71 69 64 64 69 74 71 78 73 71 64 68 71 69 63 63 64 65 58 54 49 64 69 69 61 61 50 45 32 37 29 32 36 36 47 16 13 35 30 26 40
38 50 56 69 74 73 72 79 78 78 74 66 64 65 64 59 58 57 66 60 56 72 70 56 57 57 65 70 59 41 25 28 28 35 27 21 15 44 40 41 40 39 48
40 38 35 41 53 64 66 74 84 83 78 73 68 70 71 68 57 56 59 64 59 51 53 68 65 66 68 68 63 41 45 47 32 32 36 42 43 51 45 49 57 60 52
40 46 43 43 47 53 48 58 69 71 70 72 69 67 63 59 61 59 54 54 62 62 55 65 77 70 69 59 70 52 57 71 82 112 93 59 47 64 55 65 71 60 71
47 55 60 52 47 55 66 68 73 74 70 65 58 55 57 60 62 62 63 62 61 59 58 67 69 67 65 92 59 70 75 83 91 87 85 86 67 62 62 62 60 67 73
41 57 63 71 63 65 71 78 80 81 74 67 63 58 50 48 50 50 52 59 63 69 67 63 66 64 78 67 58 57 59 51 52 64 81 97 96 76 71 67 71 74 90
22 39 56 65 70 64 76 87 88 83 78 71 60 51 41 34 34 37 40 38 44 52 59 65 62 54 50 51 53 49 49 47 48 53 56 56 62 67 79 76 82 74 73
33 40 38 36 51 51 74 94 96 84 71 58 46 35 32 31 30 30 31 28 29 33 39 43 48 58 63 62 66 62 61 55 48 51 58 69 72 73 74 77 70 62 57
35 42 47 20 15 38 60 90 81 70 59 47 37 30 27 24 23 25 28 28 27 28 28 26 23 24 29 32 37 38 39 41 42 44 48 56 64 71 70 60 56 49 54
26 17 28 37 32 2 38 64 64 59 48 36 31 33 29 23 21 20 21 22 22 20 23 23 23 22 23 24 27 29 32 36 38 41 49 52 50 49 51 48 39 48 43
36 44 40 22 28 28 12 31 52 55 49 45 46 31 32 29 29 27 27 26 23 21 16 15 15 12 13 16 19 21 25 31 38 44 48 54 56 46 43 42 45 40 33
64 44 37 34 34 31 21 17 14 50 56 60 61 54 46 47 45 40 36 31 26 27 27 22 18 14 11 12 13 17 23 30 36 42 48 52 51 46 47 49 42 39 39
68 65 54 46 38 32 39 38 30 21 36 62 65 60 56 54 53 49 44 39 26 23 26 29 26 23 23 25 25 27 30 35 41 43 45 50 47 44 42 57 53 49 38
76 77 74 66 50 42 28 32 41 44 45 36 59 70 63 62 57 58 53 48 39 33 30 30 26 24 25 30 32 32 37 40 45 46 47 50 49 45 43 43 52 50 51
77 78 73 61 52 40 24 17 18 29 26 40 42 46 66 72 70 69 63 57 48 43 40 39 36 34 30 27 32 40 46 48 48 54 53 50 50 51 46 44 40 46 53
63 68 70 63 56 52 47 49 41 29 31 33 42 38 49 55 58 62 64 62 59 55 50 47 44 47 47 45 47 46 52 56 57 59 58 56 53 54 51 43 40 43 47
67 71 66 67 73 75 78 76 69 65 59 59 52 57 46 44 47 54 60 57 54 54 53 55 55 57 61 64 64 66 66 63 63 57 57 57 60 58 52 44 43 42 38
76 82 87 96 107 107 105 86 88 87 88 88 83 70 65 65 62 63 63 62 60 59 60 63 68 74 76 73 72 69 64 63 60 55 56 56 61 61 50 48 48 40 38
91 98 98 101 99 105 101 104 110 87 92 106 104 94 88 88 85 82 82 80 78 76 77 81 81 78 83 80 79 70 56 59 55 54 57 57 58 56 43 50 41 30 31
98 101 100 102 106 96 93 104 113 117 117 94 90 95 93 98 104 100 96 93 89 85 86 87 88 88 82 79 78 69 57 53 53 51 58 61 55 46 44 40 29 24 28
102 100 100 107 107 104 101 110 111 108 102 98 99 100 100 91 86 88 97 89 82 80 81 78 79 80 79 76 70 61 58 45 51 49 58 60 48 45 34 34 33 30 30
100 96 89 97 100 98 100 108 109 93 93 92 90 84 81 79 82 82 83 80 77 76 73 70 70 74 75 74 64 52 55 42 50 47 61 58 45 44 36 33 29 29 27
99 93 86 87 93 89 94 102 101 97 92 95 89 79 78 77 65 73 77 75 77 75 73 70 71 75 74 68 59 54 49 47 50 53 64 52 48 40 36 35 33 30 35
94 86 87 85 90 86 86 85 78 88 90 87 84 83 78 80 88 86 77 79 86 81 75 75 77 71 62 59 51 50 47 54 44 56 56 54 52 50 53 44 38 36 46
79 79 81 80 62 61 66 75 66 64 76 74 76 74 70 53 62 67 72 71 72 72 74 70 65 60 52 42 44 47 46 47 45 47 51 56 47 59 53 46 44 53 49
Wind_Direction_850mb
272 258 251 244 232 224 220 221 227 229 226 233 231 233 232 234 234 232 229 230 233 238 239 242 244 240 247 247 246 252 265 274 293 307 306 305 308 293 289 316 326 4 9
273 252 247 246 242 237 229 221 227 227 228 231 234 234 232 231 231 230 230 233 235 239 237 245 238 238 232 242 234 245 251 269 297 307 310 312 314 317 232 314 310 316 348
296 263 253 249 242 236 235 230 227 226 226 228 226 227 229 232 222 222 227 235 241 242 245 245 237 242 238 224 228 216 229 264 304 300 314 305 307 300 300 306 319 317 329
291 281 275 260 246 239 238 235 225 221 220 223 224 224 226 229 228 224 220 229 236 243 251 249 243 235 236 235 233 226 246 266 274 294 320 307 298 288 295 292 308 306 302
295 290 284 272 266 249 240 228 223 224 223 224 227 229 233 237 239 240 232 231 234 245 251 248 250 244 238 243 254 250 249 262 261 275 267 278 295 278 272 281 295 303 317
292 289 283 271 256 246 233 222 219 219 218 220 221 224 227 233 238 242 240 234 234 239 247 248 248 241 246 232 228 238 250 248 257 250 257 261 255 267 278 278 291 305 316
293 285 279 267 254 234 232 221 213 213 211 210 214 214 214 217 226 232 238 235 231 237 239 239 242 253 245 247 242 238 242 257 264 260 263 265 266 259 272 278 289 302 305
336 308 288 263 258 244 229 223 210 206 205 204 202 205 211 223 231 234 237 235 232 232 235 239 243 245 241 247 256 254 255 264 268 268 272 269 269 273 277 281 288 291 293
39 19 340 275 249 244 231 222 209 205 202 199 197 206 224 234 244 238 228 219 212 212 216 226 235 242 246 248 252 257 261 266 274 271 268 270 276 275 273 280 284 281 287
57 40 30 10 279 233 229 212 200 196 193 196 207 221 222 212 209 213 218 218 217 215 213 215 218 223 231 236 244 252 258 263 264 268 272 277 273 278 274 285 283 281 274
333 11 11 19 49 52 218 193 190 192 198 204 210 199 196 198 201 213 213 205 201 205 211 215 219 227 236 244 251 257 262 267 268 272 277 285 292 291 292 299 279 277 278
349 328 327 333 358 33 91 212 202 197 199 202 201 201 203 210 217 221 216 217 219 213 195 189 190 206 233 250 265 275 281 285 282 280 284 287 292 296 284 310 299 291 290
347 348 351 338 301 307 337 25 232 228 217 211 208 207 210 214 220 226 227 229 237 227 225 222 220 222 235 259 273 299 312 318 310 298 297 296 298 295 292 288 301 296 288
333 335 339 343 347 330 305 285 298 290 250 243 237 224 220 226 231 233 235 235 232 229 233 236 242 250 254 256 265 282 295 307 312 308 303 300 294 289 290 282 281 274 283
325 323 326 326 328 332 313 285 274 279 275 267 244 243 230 233 234 237 239 237 237 239 237 239 241 253 273 272 273 276 284 292 298 303 294 305 291 282 267 265 269 268 269
315 315 312 308 305 301 300 291 264 252 254 261 253 243 242 241 239 236 231 230 232 234 235 240 240 252 272 268 272 276 278 284 288 295 294 290 294 282 277 270 270 265 260
304 303 300 296 290 283 278 279 282 248 237 236 235 236 238 233 226 226 230 231 232 236 238 241 249 258 266 270 278 281 283 279 280 288 293 286 290 286 283 281 273 261 256
297 298 289 289 287 290 289 284 277 274 265 259 249 228 228 238 235 230 232 232 233 236 241 247 256 264 268 273 279 284 284 280 274 280 287 291 284 288 286 288 280 268 256
290 286 281 280 282 282 280 278 276 275 273 268 263 248 239 245 242 238 240 245 246 250 254 258 262 266 272 278 283 287 282 270 266 271 280 287 281 287 285 283 282 266 246
285 281 274 278 275 275 276 271 271 269 267 263 262 264 257 253 249 246 246 249 250 254 257 260 267 274 278 282 285 288 268 260 260 264 273 282 281 287 282 277 264 253 221
288 279 278 270 269 267 261 258 260 264 266 261 257 256 255 254 255 254 253 251 255 257 260 263 267 271 272 276 280 280 250 254 260 259 272 282 283 281 271 253 231 213 207
291 284 273 271 270 265 258 257 254 255 254 255 255 254 253 249 245 247 253 254 250 251 256 261 264 261 264 267 269 267 239 253 255 257 272 280 284 275 258 239 221 207 209
292 289 281 275 271 263 257 254 252 247 245 245 247 246 251 251 245 241 244 240 237 233 243 252 254 255 259 261 258 251 234 247 253 259 270 277 272 270 240 213 213 220 228
300 299 292 284 280 274 260 253 250 246 242 238 236 236 236 230 229 230 230 229 231 237 244 251 251 256 260 260 247 240 225 245 252 259 266 268 261 263 217 212 218 226 228
311 314 305 295 290 293 278 265 252 238 232 231 234 236 231 237 237 231 232 235 239 246 244 247 254 254 251 251 236 228 220 246 257 259 262 259 248 219 211 216 219 235 235
322 320 319 314 311 302 277 259 251 233 226 221 219 216 216 210 214 216 221 228 239 238 248 252 251 246 241 242 225 227 238 246 258 265 257 251 223 204 205 210 225 231 208